Flag for Netherlands Weather past 2 weeks in Maastricht, Netherlands

Now
45 °F

Partly cloudy.


Feels Like: 40 °F
Forecast: 48 / 58 °F
Wind: 9 mph from West

Location: Maastricht Airport Zuid Limburg

Current Time: Oct 22, 2014 at 5:38:20 AM

Latest Report: Oct 22, 2014 at 4:55 AM


Visibility: N/A

Pressure: 29.98 "Hg

Humidity: 87%

Dew point: 41 °F

Location of MaastrichtLocation

Historic Weather in Maastricht — Graph

°F

Maastricht temperature yesterday

Maximum temperature yesterday: 57 °F (at 3:25 PM)
Minimum temperature yesterday: 46 °F (at 6:55 PM)
Average temperature yesterday: 52 °F

Past Weeks' High & Low Weather Summary

 TemperatureHumidityPressure
High73 °F (Oct 18, 2:55 PM)100% (Oct 11, 2:55 AM)30.07 "Hg (Oct 11, 2:55 AM)
Low41 °F (Oct 22, 2:55 AM)59% (Oct 7, 1:55 PM)29.50 "Hg (Oct 7, 7:55 AM)
Average58 °F83%29.82 "Hg
* Reported Oct 7 4:25 AM — Oct 22 4:25 AM, Maastricht, Weather by CustomWeather, © 2014

Note: Actual official high and low records may vary slightly from our data, if they occured in-between our weather recording intervals... More about our weather records

Advertising

Maastricht weather history for previous 24 hours

 ConditionsComfort  
Time TempWeatherWind HumidityBarometerVisibility
4:25 AM
Oct 22
45 °FPassing clouds.9 mph87%29.98 "HgN/A
3:55 AM43 °FPassing clouds.9 mph93%29.98 "HgN/A
3:25 AM43 °FPassing clouds.7 mph93%29.98 "HgN/A
2:55 AM41 °FLots of rain. Passing clouds.16 mph87%29.98 "Hg2 mi
2:25 AM45 °FPartly cloudy.12 mph87%29.92 "HgN/A
1:55 AM46 °FPassing clouds.10 mph82%29.92 "HgN/A
1:25 AM46 °FPassing clouds.10 mph82%29.89 "HgN/A
12:55 AM45 °FMostly cloudy.8 mph93%29.89 "HgN/A
12:25 AM46 °FLots of rain. Mostly cloudy.8 mph87%29.86 "Hg2 mi
11:55 PM
Oct 21
46 °FLight rain. Partly cloudy.12 mph82%29.83 "HgN/A
11:25 PM46 °FLight rain. Passing clouds.12 mph82%29.83 "HgN/A
10:55 PM46 °FLight rain. Partly cloudy.9 mph87%29.83 "HgN/A
10:25 PM46 °FPassing clouds.14 mph87%29.80 "HgN/A
9:55 PM46 °FPassing clouds.14 mph82%29.77 "HgN/A
9:25 PM46 °FPassing clouds.13 mph82%29.74 "HgN/A
8:55 PM46 °FPassing clouds.15 mph82%29.74 "HgN/A
8:25 PM46 °FPassing clouds.15 mph82%29.74 "HgN/A
7:55 PM46 °FPassing clouds.13 mph82%29.71 "HgN/A
7:25 PM48 °FPassing clouds.10 mph76%29.68 "HgN/A
6:55 PM46 °FClear.10 mph82%29.68 "HgN/A
6:25 PM48 °FScattered clouds.13 mph76%29.65 "HgN/A
5:55 PM48 °FLight rain. Broken clouds.16 mph82%29.65 "HgN/A
5:25 PM52 °FPartly sunny.14 mph82%29.62 "HgN/A
4:55 PM52 °FMostly cloudy.10 mph88%29.59 "HgN/A
4:25 PM52 °FMore clouds than sun.12 mph88%29.59 "HgN/A
3:55 PM54 °FLight rain. Partly sunny.17 mph88%29.53 "HgN/A
3:25 PM57 °FLight rain. Broken clouds.24 mph88%29.53 "HgN/A
2:55 PM55 °FPartly sunny.25 mph94%29.56 "HgN/A
2:25 PM55 °FSprinkles. More clouds than sun.24 mph88%29.56 "Hg4 mi
1:55 PM55 °FCloudy.25 mph82%29.59 "HgN/A
1:25 PM54 °FMostly cloudy.24 mph88%29.62 "HgN/A
12:55 PM54 °FBroken clouds.23 mph94%29.65 "HgN/A
12:25 PM52 °FLight rain. Partly sunny.23 mph94%29.68 "Hg3 mi
11:55 AM54 °FLight rain. Mostly cloudy.23 mph88%29.68 "Hg4 mi
11:25 AM55 °FMostly cloudy.23 mph77%29.68 "HgN/A
10:55 AM54 °FMore clouds than sun.21 mph88%29.71 "HgN/A
10:25 AM54 °FBroken clouds.21 mph88%29.74 "HgN/A
9:55 AM54 °FLight rain. Overcast.18 mph82%29.77 "HgN/A
9:25 AM54 °FDrizzle. Partly sunny.16 mph82%29.77 "HgN/A
8:55 AM54 °FMostly cloudy.15 mph82%29.77 "HgN/A
8:25 AM54 °FPassing clouds.15 mph82%29.80 "HgN/A
7:55 AM54 °FPassing clouds.15 mph82%29.80 "HgN/A
7:25 AM52 °FPassing clouds.15 mph88%29.80 "HgN/A
6:55 AM54 °FPassing clouds.20 mph88%29.83 "HgN/A
6:25 AM54 °FPassing clouds.14 mph88%29.83 "HgN/A
5:55 AM54 °FPassing clouds.15 mph88%29.83 "HgN/A
Weather by CustomWeather, © 2014

See weather overviewHow to use our weather pages